Wind_Speed
27 27 26 26 26 25 24 22 21 21 21 21 21 21 22 22 21 19 18 19 19 18 18 17 17 17 16 16 16 17 18 19 20 22 24 24 24 25 25 24 24 24 24 25 25 27 28 29 30 31 33 34 36 37 38 38 39 40 40 40 40 40 41
29 29 29 29 29 28 26 24 24 24 24 24 24 23 23 23 22 21 20 20 20 20 19 19 19 19 20 19 18 18 18 19 21 23 24 25 26 26 27 27 26 26 26 27 27 28 29 31 31 32 33 35 37 38 39 40 41 42 42 41 42 42 42
32 31 31 31 30 29 27 26 26 26 26 26 26 25 24 23 23 24 23 22 22 22 22 21 20 21 22 22 21 19 19 20 22 24 25 26 27 28 29 29 28 28 28 29 29 30 31 32 34 34 35 36 38 39 40 41 42 43 43 43 43 43 43
33 32 33 33 31 29 29 28 28 28 28 28 28 27 26 25 26 26 26 25 24 24 24 23 23 23 24 24 23 22 21 22 22 24 26 27 28 29 30 31 31 30 30 31 31 32 33 34 35 36 37 38 39 40 42 43 43 44 45 45 45 45 45
36 34 34 35 34 32 31 30 29 29 29 29 30 29 28 28 29 29 28 27 27 26 26 25 25 25 26 26 26 25 24 23 24 25 27 29 30 31 32 33 33 33 33 33 34 34 35 36 37 38 38 39 40 42 43 44 45 45 46 46 47 46 46
39 37 37 36 36 35 34 32 30 30 30 31 31 30 30 30 30 30 29 29 30 29 29 28 28 28 28 28 28 27 26 25 25 26 28 30 31 32 34 35 35 35 35 35 36 37 37 38 38 39 40 40 41 42 43 45 46 46 47 47 48 48 48
42 41 40 39 38 37 35 34 32 32 32 33 33 32 32 32 31 31 32 31 32 31 31 31 31 31 31 31 30 29 29 28 27 28 29 30 32 34 35 36 37 37 37 38 39 39 40 41 41 41 42 42 43 44 44 45 46 47 48 48 49 49 49
44 44 44 42 41 39 37 36 36 35 34 34 34 35 34 33 33 33 33 33 33 33 33 33 33 34 33 33 33 32 30 30 30 30 31 32 33 35 37 38 39 39 39 40 41 42 43 43 44 45 45 45 44 45 46 46 47 48 48 49 50 50 50
46 46 47 46 44 42 40 40 39 38 37 36 36 37 36 35 35 35 34 34 34 35 34 34 35 35 35 35 35 34 33 32 32 32 33 34 36 37 39 41 42 42 43 43 43 44 45 45 46 47 47 46 46 47 49 49 48 48 49 50 51 51 51
49 49 50 49 48 46 45 44 43 41 40 39 39 39 38 38 38 37 36 36 36 36 36 36 36 36 36 35 35 35 35 35 36 36 36 37 38 39 40 42 44 45 45 45 46 46 46 47 48 48 49 48 48 50 51 50 49 48 49 51 52 53 53
52 52 53 53 51 50 49 47 46 45 44 43 42 41 41 40 40 40 40 39 39 39 38 37 37 38 37 37 37 37 38 39 39 40 40 40 40 41 42 43 45 46 47 48 48 48 49 49 50 50 51 50 51 52 52 51 50 49 50 52 54 54 55
55 56 57 56 53 52 52 50 48 47 46 46 46 44 43 43 43 43 43 42 41 40 39 39 40 40 40 40 40 40 41 41 42 42 43 42 42 42 44 45 46 47 48 49 50 51 51 51 52 53 53 52 53 53 53 53 53 52 53 55 56 57 58
58 58 58 57 55 54 54 52 50 49 48 48 48 46 45 45 46 46 45 44 43 42 41 41 42 42 42 42 43 43 43 43 44 44 45 44 44 44 45 47 48 49 50 51 52 52 53 53 54 54 55 55 55 55 55 55 56 57 57 58 59 60 60
62 61 60 58 55 54 56 55 52 51 50 50 50 48 47 47 47 47 46 46 46 44 43 43 44 45 45 44 45 45 45 45 45 46 47 46 45 45 46 48 49 50 52 53 53 54 54 54 55 56 57 57 56 57 57 58 59 59 59 60 61 62 62
65 63 60 57 56 56 57 57 55 54 53 52 51 50 49 48 48 48 48 47 47 47 46 45 46 47 46 46 47 48 47 47 47 48 49 48 47 47 48 49 50 52 53 54 54 54 55 56 57 58 58 59 59 59 59 60 61 61 61 61 62 62 63
68 65 62 60 59 59 59 59 57 57 56 55 54 53 52 51 51 51 49 48 48 48 48 47 47 48 48 48 48 49 49 49 49 50 51 50 49 49 49 50 51 53 53 54 55 55 56 58 58 58 59 60 61 61 62 62 62 62 62 62 63 63 64
70 68 66 64 62 61 62 61 60 59 58 58 57 57 56 54 54 53 52 51 50 51 51 49 48 48 50 49 49 48 49 51 52 52 53 52 50 49 50 51 52 53 54 55 56 57 59 59 59 59 60 62 63 64 64 65 65 65 64 63 65 66 65
72 71 70 68 65 65 66 65 64 63 62 61 60 59 58 58 57 56 55 55 54 54 53 51 50 51 51 51 50 49 50 51 53 53 52 51 50 50 51 52 54 55 57 58 58 59 60 61 61 61 62 64 65 66 66 67 68 67 66 65 67 68 67
76 74 73 72 70 70 69 69 68 67 66 65 64 61 60 60 59 59 58 58 57 55 54 54 54 53 52 52 52 51 51 51 52 53 52 52 52 52 53 55 57 58 59 60 60 61 61 62 62 63 64 66 67 68 69 69 70 68 67 67 68 68 68
80 79 77 76 75 74 72 72 72 71 70 68 67 65 64 62 61 61 61 61 59 57 56 57 57 55 54 55 55 54 53 53 54 55 56 57 57 57 57 59 60 61 61 62 63 63 64 64 64 65 67 68 70 70 71 71 71 69 68 68 70 69 68
77 81 80 78 78 77 76 75 76 75 74 73 71 69 68 66 64 63 63 62 61 60 59 59 58 56 56 56 56 56 57 57 58 59 60 61 61 61 61 62 63 63 63 64 66 66 66 66 67 68 69 71 72 73 73 73 72 70 69 71 72 70 70
68 75 78 79 80 80 79 79 79 78 77 76 74 73 72 70 68 66 65 64 64 63 61 60 59 57 57 57 58 60 61 62 62 63 64 65 65 65 66 65 66 66 66 67 68 69 68 68 68 69 71 72 73 75 76 75 73 72 73 74 73 71 71
60 66 71 76 80 83 82 81 81 81 79 78 77 76 75 74 72 70 68 67 66 65 64 62 60 59 60 61 63 64 65 65 66 66 67 69 69 69 69 68 68 68 69 70 71 71 70 70 70 71 71 73 74 76 76 75 74 74 75 75 73 72 73
57 60 65 69 74 80 82 81 82 83 82 81 80 79 78 76 75 74 72 70 68 67 66 63 62 62 63 64 66 67 67 68 69 69 70 71 71 70 69 70 71 72 71 72 72 72 71 71 71 72 72 74 75 76 75 74 74 75 75 74 73 73 73
58 58 60 62 67 72 78 81 84 86 85 83 82 81 80 80 79 77 74 73 71 69 67 65 65 65 65 66 69 70 71 72 73 73 73 72 72 72 73 75 76 75 74 74 74 73 73 72 72 73 74 75 76 75 74 73 74 75 73 72 73 73 73
59 58 57 58 61 66 71 76 80 84 84 84 83 83 83 84 83 80 77 75 73 71 68 67 67 68 68 70 73 75 76 76 76 76 75 75 75 76 78 80 80 78 76 75 75 75 74 74 74 74 75 75 76 76 75 74 74 74 72 71 72 73 72
60 60 59 59 60 61 64 67 72 76 80 82 84 85 86 86 85 82 79 77 76 73 70 69 70 72 74 76 77 79 80 79 79 79 79 79 79 80 81 82 83 81 78 77 77 76 75 75 75 75 75 75 76 76 76 75 73 72 71 71 71 71 71
59 60 60 61 61 61 61 62 64 68 73 78 82 85 87 87 86 84 81 80 78 75 73 73 75 77 78 79 80 80 81 81 81 82 82 83 83 83 84 85 85 83 81 79 78 76 76 76 76 75 75 75 76 76 75 74 72 71 71 71 71 70 70
59 59 59 60 61 61 62 62 62 63 66 70 73 77 80 82 84 84 84 82 79 77 76 77 79 79 79 79 80 81 81 82 83 84 85 86 86 87 87 87 86 85 82 80 78 77 76 75 75 74 74 74 75 75 73 72 71 71 71 71 71 71 71
60 59 59 60 60 61 62 63 63 62 61 62 64 65 68 72 75 79 81 80 78 76 78 79 79 79 78 79 80 80 81 81 83 86 87 88 89 90 90 89 88 87 84 82 80 77 75 74 73 72 72 73 74 73 71 71 73 73 72 72 71 71 70
60 60 59 60 60 60 61 61 62 61 60 59 59 59 61 63 65 69 71 71 71 74 77 79 79 78 79 79 79 78 79 81 83 86 89 91 91 91 91 91 90 87 85 83 80 76 73 72 71 70 71 73 72 71 71 73 73 73 72 72 71 70 69
59 60 59 60 60 60 60 60 60 59 59 58 57 57 57 58 59 61 62 62 66 72 76 76 76 77 78 76 72 70 71 76 81 86 89 90 91 92 92 91 88 86 84 81 78 74 71 69 69 71 72 72 71 72 73 73 72 71 70 70 70 69 68
58 58 59 59 58 57 57 56 56 57 58 57 55 54 54 54 54 55 58 61 65 69 71 70 71 72 72 68 65 63 64 67 73 80 84 87 89 91 91 90 86 83 81 77 74 70 67 66 68 71 72 72 72 72 71 69 69 69 68 68 68 67 66
57 57 57 57 55 55 54 54 53 55 56 55 53 53 53 52 52 52 55 58 61 62 64 65 63 62 64 66 70 73 72 70 70 73 77 82 85 87 87 86 82 76 73 72 69 66 64 66 68 69 70 70 70 68 67 67 67 67 67 66 65 64 64
57 57 56 56 55 54 54 53 53 53 53 52 51 51 51 52 51 48 47 49 50 53 57 61 60 59 62 69 76 79 81 80 78 76 78 82 83 83 81 77 71 67 66 66 64 62 62 64 65 65 66 65 64 64 64 64 65 66 66 64 63 63 64
57 58 57 56 55 54 52 51 51 52 51 50 49 50 49 49 46 42 39 40 42 44 50 56 59 58 59 65 70 73 77 81 79 74 74 77 75 71 68 64 60 59 58 56 56 57 59 60 60 59 59 59 59 60 60 61 63 65 64 62 62 64 66
56 58 57 56 55 53 51 50 51 50 49 49 49 47 44 41 39 36 35 37 39 39 41 44 44 42 42 49 58 63 68 72 67 61 64 70 68 63 61 59 57 56 53 52 54 57 57 55 54 54 54 56 56 56 56 59 63 64 63 62 63 66 68
57 57 57 56 55 53 50 50 49 47 47 48 46 41 37 36 35 32 32 35 35 32 31 32 32 31 33 40 50 56 58 59 58 58 64 68 67 65 63 60 59 56 55 56 58 58 55 53 52 53 54 54 53 53 56 60 62 63 62 63 65 68 68
Wind_Direction
228 229 227 228 230 230 230 229 229 229 228 229 231 230 231 234 236 237 239 241 243 244 248 253 261 265 264 264 269 278 287 295 298 300 304 309 310 310 310 312 315 317 318 320 322 323 325 326 327 329 330 331 333 334 335 336 337 338 340 340 340 340 340
231 231 232 231 231 231 231 232 232 230 230 231 233 234 234 236 238 240 242 244 246 248 250 252 257 261 265 267 269 275 283 289 294 297 300 305 308 308 308 311 314 315 317 318 319 321 323 323 325 327 329 330 331 332 333 335 336 337 338 338 338 338 338
231 233 235 235 233 232 232 233 234 233 233 234 236 238 239 240 242 244 245 246 248 251 253 253 255 259 263 268 272 275 279 285 289 292 297 302 305 306 307 309 312 314 314 315 317 319 320 322 323 326 328 329 329 330 331 333 334 335 336 336 336 336 336
227 229 235 236 236 234 233 233 234 235 236 237 239 240 240 241 242 245 248 249 249 253 256 256 257 260 264 270 274 276 278 281 285 289 294 298 301 304 306 307 310 311 312 314 315 317 319 321 322 325 326 327 328 329 330 331 332 334 334 334 334 334 334
227 225 229 234 235 235 234 234 234 237 238 239 240 241 241 241 242 245 248 249 250 253 256 258 261 265 267 271 275 277 279 280 283 287 290 295 299 302 304 305 308 309 311 312 314 316 318 319 321 323 324 326 327 327 328 329 331 332 333 332 332 332 332
232 228 227 230 233 233 233 234 234 236 239 240 241 242 243 243 244 247 248 249 251 254 255 258 262 266 269 272 276 278 280 281 283 284 287 292 296 300 302 303 305 307 309 311 313 314 316 318 320 321 323 324 325 326 326 328 329 331 331 331 331 330 330
235 234 231 231 232 233 234 234 234 235 237 240 242 243 244 245 246 248 249 250 253 255 255 257 261 265 267 270 273 276 279 281 281 283 286 290 294 297 300 301 302 305 308 310 311 313 315 317 319 320 321 322 324 324 325 327 328 330 330 330 329 328 328
235 237 236 235 234 234 235 236 236 236 236 238 242 244 245 245 246 247 248 252 255 255 256 259 262 265 266 267 268 272 275 278 279 281 285 288 291 295 298 299 300 302 305 308 310 312 314 316 318 319 320 321 322 323 324 326 327 328 328 328 327 327 327
234 237 239 238 237 236 235 237 238 237 237 239 242 245 246 246 247 247 248 251 253 255 257 260 264 266 268 269 269 270 271 274 278 280 283 285 289 293 295 297 298 301 303 306 309 311 313 315 317 319 320 320 320 321 322 323 325 327 327 326 325 325 326
235 237 239 239 238 237 236 236 238 239 239 240 241 244 247 248 249 249 249 250 252 254 257 260 263 266 268 270 271 270 270 273 278 281 283 284 287 291 294 296 298 300 302 305 308 311 312 314 316 317 319 319 319 319 319 321 323 325 326 325 324 324 325
235 237 240 239 238 237 236 235 237 239 240 240 240 242 245 248 249 250 251 251 253 255 257 260 263 265 267 269 271 271 273 275 279 282 284 285 287 290 293 296 297 299 301 305 308 310 311 313 314 316 317 318 318 317 317 319 321 323 324 324 323 323 324
234 236 239 240 239 239 238 236 236 238 240 241 240 240 243 246 248 251 252 253 254 256 259 261 263 265 266 268 270 272 274 277 279 282 284 285 287 290 293 295 297 299 302 305 307 309 310 311 313 315 316 317 318 317 316 317 319 320 321 322 322 323 324
234 235 237 239 240 242 243 241 239 239 240 242 242 241 242 244 246 250 252 254 256 258 259 261 263 265 267 268 270 272 274 276 279 281 283 284 288 290 293 295 298 300 303 304 306 307 309 310 313 315 316 316 317 316 315 314 316 318 319 320 321 322 323
233 235 236 238 240 243 245 246 245 243 242 243 244 243 244 245 247 249 251 253 256 257 259 261 263 265 267 269 270 272 274 276 279 281 282 285 288 291 293 296 299 301 303 304 305 306 308 310 312 313 314 315 315 315 314 313 315 317 318 319 320 321 321
236 236 237 239 240 242 245 246 247 247 247 246 246 246 246 247 248 250 251 253 256 257 259 261 263 266 268 270 271 273 275 277 280 282 283 286 289 292 295 297 299 301 302 303 304 305 306 308 310 312 313 313 313 312 312 313 314 315 317 317 318 319 320
240 239 239 240 241 242 244 246 246 247 249 249 250 250 249 250 250 252 252 254 256 258 259 260 263 266 268 271 272 273 275 278 280 283 285 288 290 292 294 296 298 299 300 302 303 303 305 307 308 309 310 310 310 310 311 312 312 314 315 315 316 318 319
242 242 241 241 242 244 245 245 246 247 248 249 249 251 252 252 254 255 255 256 258 259 260 261 263 265 267 269 271 272 276 279 282 284 286 288 290 291 293 295 297 297 299 300 301 301 303 305 306 307 307 307 308 308 309 310 311 312 313 314 315 317 318
240 242 243 243 243 245 246 246 246 246 247 248 248 249 251 253 255 256 257 258 259 260 262 263 264 265 267 269 271 274 277 280 283 285 285 286 288 291 293 295 295 296 297 298 299 300 301 303 304 305 305 305 305 306 308 309 310 311 311 312 314 316 317
239 239 241 242 242 243 245 247 247 246 246 247 248 249 250 252 255 257 258 258 259 262 264 265 265 267 269 271 273 276 278 280 282 284 284 285 289 291 293 293 294 294 296 296 297 298 300 301 302 303 303 303 304 305 306 308 309 310 310 312 314 315 316
239 238 238 239 241 241 243 245 247 248 247 247 247 248 249 250 253 255 257 258 260 262 264 265 267 269 271 273 275 276 277 279 281 282 283 285 288 290 290 291 292 293 294 295 296 297 298 299 300 301 302 302 303 304 305 307 308 308 309 311 313 313 314
241 241 240 240 241 242 243 244 245 247 249 249 248 248 249 249 250 252 255 258 259 261 263 264 267 271 273 274 275 276 278 279 281 282 284 285 286 288 289 289 290 291 292 293 294 295 297 298 299 300 301 302 302 303 304 306 306 307 308 310 312 313 313
243 243 242 241 242 243 244 245 246 247 248 249 250 251 251 250 250 251 254 256 259 260 262 264 267 270 272 273 274 276 278 279 281 283 284 285 286 287 287 288 289 290 290 290 292 294 295 297 298 299 300 301 302 303 304 305 305 305 307 310 311 312 312
245 244 242 241 241 242 242 243 245 246 247 247 249 250 252 253 253 253 254 255 258 260 262 264 267 269 271 272 274 276 278 279 281 283 284 286 286 286 285 285 287 287 288 289 291 292 294 295 296 297 298 299 301 302 303 303 303 305 307 309 310 310 310
247 246 244 241 241 241 242 242 244 245 246 246 247 249 251 252 254 255 255 256 257 260 262 264 266 268 270 272 274 276 277 278 280 281 282 283 284 282 282 283 285 286 286 288 289 291 292 294 295 296 297 298 299 300 301 301 302 305 307 308 308 308 309
251 248 247 244 242 242 242 242 243 245 246 246 248 249 249 251 252 254 255 256 258 259 261 263 265 267 269 271 273 274 275 276 276 277 279 280 280 279 280 283 284 285 286 287 288 290 291 293 294 295 297 297 298 298 299 300 302 305 306 306 306 307 310
258 255 253 250 247 244 243 242 243 244 246 246 248 249 249 250 250 251 253 254 256 258 259 261 264 266 268 269 270 271 272 272 273 275 276 277 277 278 280 282 283 284 285 286 288 289 291 292 294 295 296 297 297 297 299 300 302 304 304 305 306 308 310
260 261 259 257 253 250 247 245 244 245 245 246 246 247 248 249 250 251 251 252 254 256 258 260 262 265 266 267 268 268 270 271 273 274 275 276 276 278 280 281 282 284 285 286 287 289 290 292 293 294 295 296 296 297 299 300 302 302 303 305 307 308 309
257 259 261 262 261 258 255 251 247 246 246 246 245 246 247 249 250 251 251 252 254 256 258 260 261 262 263 265 266 268 270 272 274 275 276 277 278 279 279 280 281 282 283 284 286 287 289 290 292 294 295 294 295 296 298 299 300 301 303 305 306 307 307
255 256 259 261 262 263 262 259 254 250 248 248 248 248 249 250 251 252 252 252 253 255 257 258 259 260 262 264 266 269 271 272 274 275 276 277 277 278 278 279 280 281 282 283 284 286 287 289 291 293 293 293 294 295 296 297 299 301 303 304 304 304 306
254 254 255 257 259 260 262 262 261 258 256 255 254 252 252 252 251 252 253 253 254 255 256 257 258 261 263 264 266 268 270 272 273 274 275 275 275 276 277 278 279 280 281 282 283 284 286 288 290 291 291 291 292 293 294 296 299 300 301 302 302 303 305
252 252 253 254 255 257 259 260 262 262 262 260 258 256 255 253 252 252 252 253 254 254 254 255 257 258 260 262 263 265 267 269 270 271 272 273 274 275 276 277 278 278 279 280 282 283 285 287 289 289 289 290 291 292 294 296 298 299 300 300 301 303 305
249 250 250 251 252 254 257 260 262 264 263 262 260 258 257 255 254 252 251 250 250 250 251 253 254 255 257 258 261 265 268 269 268 269 271 273 274 274 274 275 276 277 278 279 281 283 285 286 287 288 289 289 290 292 295 296 297 298 298 299 301 304 306
245 246 247 248 249 252 255 259 262 263 264 264 262 260 258 256 253 251 249 247 246 248 250 252 253 257 260 261 264 271 278 277 272 270 271 272 273 273 273 274 275 276 276 278 280 283 284 285 286 287 288 289 291 293 295 296 296 297 297 299 302 304 305
242 243 244 246 248 251 254 257 260 261 262 263 262 261 259 256 253 249 248 248 248 249 250 249 248 253 261 264 267 275 283 283 277 274 276 277 275 272 272 274 274 274 275 278 281 282 282 283 286 287 288 290 293 294 294 295 296 296 298 301 303 303 304
241 241 243 246 248 251 253 256 258 259 260 262 262 260 257 255 253 250 248 249 250 250 250 247 243 245 254 262 267 275 282 284 281 281 283 282 278 274 273 271 270 273 278 280 280 280 282 284 287 288 290 292 293 294 295 296 297 298 300 301 301 300 302
242 242 243 245 247 249 252 253 255 256 258 259 258 256 254 252 250 247 244 243 244 245 245 244 241 240 247 257 263 269 274 278 280 283 281 277 276 274 270 266 269 276 280 279 279 282 285 286 288 289 290 291 293 294 296 296 296 298 299 298 297 298 301
242 241 242 243 244 246 249 251 253 254 254 254 254 252 249 245 243 239 233 231 235 239 242 242 237 231 236 247 253 258 264 269 274 273 267 264 262 260 259 265 272 276 277 279 284 287 287 287 288 288 289 291 293 293 292 292 294 297 296 295 295 298 301
241 240 240 241 243 245 246 248 252 253 251 249 249 245 237 233 232 229 224 226 234 241 246 247 239 230 231 239 241 245 252 258 258 253 248 247 246 245 252 265 272 273 277 283 287 288 289 288 287 288 290 291 290 287 287 290 293 294 293 293 296 299 302
Height
10958 10959 10961 10962 10963 10965 10966 10968 10970 10971 10972 10973 10973 10974 10976 10976 10977 10979 10979 10979 10980 10980 10981 10982 10982 10982 10982 10982 10981 10981 10982 10982 10981 10981 10981 10981 10980 10979 10979 10978 10978 10977 10976 10975 10974 10972 10971 10970 10968 10967 10965 10962 10960 10959 10957 10956 10954 10951 10949 10947 10945 10942 10940
10955 10956 10957 10959 10960 10962 10964 10965 10967 10968 10969 10970 10971 10972 10973 10974 10975 10976 10977 10978 10978 10978 10978 10979 10980 10980 10979 10979 10979 10979 10979 10979 10979 10978 10978 10978 10978 10977 10976 10976 10975 10975 10974 10973 10972 10970 10969 10967 10966 10965 10963 10961 10958 10956 10954 10953 10951 10948 10946 10944 10942 10940 10938
10951 10952 10953 10954 10956 10959 10961 10962 10963 10964 10966 10967 10968 10969 10971 10972 10973 10973 10974 10975 10976 10976 10976 10976 10977 10977 10977 10976 10976 10976 10976 10975 10975 10975 10975 10975 10975 10974 10973 10973 10973 10972 10971 10970 10969 10968 10966 10964 10963 10961 10960 10959 10957 10954 10952 10950 10948 10946 10944 10941 10939 10937 10935
10949 10950 10950 10951 10952 10955 10958 10959 10960 10961 10962 10964 10965 10966 10967 10968 10969 10970 10971 10972 10973 10974 10974 10974 10974 10974 10974 10974 10974 10973 10973 10972 10972 10972 10972 10972 10972 10972 10971 10970 10969 10969 10968 10967 10966 10965 10963 10962 10960 10958 10957 10956 10954 10952 10950 10948 10945 10943 10940 10938 10936 10934 10931
10945 10947 10947 10948 10949 10952 10954 10956 10957 10958 10959 10960 10961 10963 10964 10965 10965 10966 10968 10969 10970 10971 10971 10971 10971 10971 10971 10971 10971 10971 10970 10969 10969 10968 10968 10968 10969 10969 10968 10967 10966 10966 10965 10964 10963 10962 10960 10959 10957 10956 10954 10953 10951 10949 10947 10945 10943 10940 10937 10934 10932 10930 10928
10940 10942 10944 10945 10946 10948 10950 10952 10953 10954 10955 10956 10958 10959 10960 10961 10962 10963 10965 10966 10966 10967 10968 10968 10968 10968 10968 10968 10968 10968 10967 10966 10966 10965 10965 10965 10965 10965 10965 10964 10963 10962 10962 10960 10959 10958 10957 10955 10954 10953 10952 10950 10949 10947 10945 10943 10940 10938 10935 10932 10928 10926 10924
10934 10936 10938 10940 10941 10943 10945 10947 10948 10950 10951 10953 10954 10955 10956 10957 10959 10960 10961 10962 10963 10963 10964 10964 10965 10965 10965 10965 10965 10965 10964 10964 10963 10962 10962 10962 10962 10962 10962 10961 10960 10959 10958 10957 10956 10954 10953 10952 10951 10950 10949 10947 10946 10944 10942 10940 10938 10935 10932 10929 10926 10923 10920
10929 10930 10932 10934 10936 10939 10941 10943 10944 10946 10947 10949 10950 10951 10952 10954 10955 10956 10957 10959 10959 10960 10960 10961 10961 10961 10961 10961 10961 10962 10961 10961 10960 10959 10959 10959 10959 10959 10958 10958 10957 10956 10955 10954 10953 10951 10949 10948 10947 10946 10945 10943 10942 10940 10938 10937 10935 10932 10929 10926 10923 10920 10917
10925 10926 10927 10929 10932 10935 10937 10939 10940 10942 10944 10945 10946 10946 10948 10950 10951 10952 10954 10955 10956 10956 10957 10957 10957 10957 10957 10957 10958 10958 10958 10957 10957 10956 10956 10955 10955 10955 10955 10954 10953 10953 10952 10951 10950 10949 10947 10945 10944 10942 10941 10939 10937 10935 10933 10932 10931 10930 10926 10923 10920 10918 10915
10922 10922 10922 10924 10927 10930 10932 10934 10936 10938 10940 10941 10942 10942 10944 10945 10947 10948 10950 10951 10952 10953 10954 10954 10954 10953 10953 10954 10954 10954 10954 10954 10953 10953 10953 10952 10952 10952 10951 10951 10950 10949 10948 10947 10947 10946 10944 10943 10941 10939 10938 10936 10934 10931 10929 10928 10928 10927 10924 10920 10917 10914 10912
10917 10918 10917 10918 10921 10924 10926 10930 10932 10933 10935 10937 10938 10939 10940 10941 10942 10944 10945 10947 10948 10949 10950 10950 10950 10950 10950 10950 10950 10950 10950 10950 10950 10949 10949 10949 10948 10948 10948 10947 10946 10945 10944 10943 10942 10941 10940 10939 10938 10936 10934 10932 10930 10927 10925 10923 10922 10922 10920 10917 10913 10910 10907
10911 10912 10912 10913 10916 10918 10920 10924 10927 10929 10931 10932 10933 10935 10937 10937 10938 10938 10940 10942 10943 10944 10945 10946 10946 10946 10946 10946 10946 10946 10946 10946 10946 10946 10945 10945 10945 10945 10944 10943 10942 10942 10941 10939 10938 10937 10936 10935 10933 10932 10930 10928 10926 10923 10920 10918 10917 10916 10914 10911 10908 10904 10901
10904 10906 10907 10909 10911 10914 10915 10918 10922 10924 10926 10927 10928 10931 10932 10933 10933 10934 10935 10936 10937 10939 10940 10941 10941 10942 10942 10942 10942 10942 10942 10942 10942 10942 10941 10941 10941 10941 10940 10939 10938 10938 10937 10936 10934 10933 10931 10930 10928 10927 10925 10923 10920 10917 10914 10912 10911 10910 10908 10905 10902 10899 10895
10897 10899 10902 10905 10908 10910 10910 10912 10916 10918 10920 10921 10923 10925 10927 10928 10929 10930 10930 10931 10932 10934 10935 10936 10937 10937 10938 10938 10938 10937 10937 10938 10938 10937 10936 10937 10937 10937 10936 10935 10935 10934 10933 10931 10930 10929 10927 10925 10924 10921 10919 10917 10915 10912 10909 10907 10905 10904 10902 10899 10896 10894 10891
10892 10895 10899 10903 10905 10905 10905 10906 10910 10912 10914 10915 10917 10919 10921 10922 10923 10924 10925 10926 10927 10929 10931 10932 10933 10933 10934 10934 10934 10933 10933 10934 10934 10933 10932 10932 10933 10933 10932 10931 10931 10930 10928 10927 10925 10924 10922 10921 10919 10917 10914 10911 10909 10907 10904 10901 10900 10898 10897 10894 10892 10889 10886
10887 10890 10894 10897 10899 10900 10900 10901 10904 10906 10907 10910 10912 10913 10915 10916 10917 10918 10920 10921 10922 10923 10925 10927 10929 10929 10929 10930 10929 10929 10929 10929 10929 10928 10927 10927 10928 10928 10928 10927 10927 10925 10924 10922 10920 10919 10917 10915 10914 10912 10909 10906 10903 10901 10898 10896 10895 10893 10892 10890 10887 10885 10882
10880 10884 10887 10890 10892 10894 10894 10896 10898 10900 10902 10904 10905 10906 10908 10909 10911 10912 10914 10916 10917 10917 10919 10922 10925 10925 10924 10924 10925 10926 10925 10924 10923 10923 10922 10922 10923 10923 10923 10922 10922 10920 10919 10918 10916 10914 10912 10910 10908 10906 10904 10900 10897 10895 10893 10891 10889 10888 10887 10884 10881 10879 10876
10875 10877 10879 10882 10885 10885 10886 10888 10891 10894 10896 10897 10898 10901 10902 10903 10905 10907 10909 10910 10911 10912 10914 10917 10920 10920 10919 10919 10920 10921 10921 10920 10919 10918 10917 10917 10918 10918 10918 10917 10916 10915 10914 10912 10911 10909 10907 10904 10903 10901 10898 10895 10892 10889 10887 10885 10883 10882 10881 10878 10875 10872 10869
10865 10868 10870 10873 10875 10876 10877 10879 10882 10886 10889 10891 10893 10896 10897 10898 10900 10901 10902 10903 10905 10908 10910 10912 10913 10914 10915 10914 10915 10916 10915 10915 10914 10912 10912 10912 10912 10913 10913 10911 10910 10909 10907 10906 10905 10903 10902 10900 10897 10895 10892 10889 10886 10883 10881 10879 10877 10875 10874 10872 10870 10866 10863
10852 10856 10860 10863 10865 10867 10870 10871 10873 10877 10881 10884 10887 10890 10891 10893 10895 10895 10895 10897 10900 10904 10905 10905 10906 10909 10910 10909 10909 10909 10909 10909 10908 10906 10906 10907 10907 10907 10907 10905 10904 10903 10902 10900 10898 10897 10895 10894 10892 10889 10886 10882 10879 10876 10875 10873 10871 10869 10867 10865 10863 10861 10857
10841 10845 10851 10857 10859 10861 10864 10865 10866 10869 10873 10875 10879 10882 10884 10888 10890 10890 10890 10892 10894 10897 10899 10899 10900 10903 10903 10903 10902 10902 10901 10902 10901 10900 10900 10900 10901 10901 10900 10899 10898 10897 10896 10893 10891 10890 10889 10888 10886 10882 10879 10875 10871 10868 10867 10866 10864 10862 10860 10858 10856 10854 10851
10833 10836 10842 10848 10851 10853 10856 10857 10859 10862 10866 10868 10870 10873 10877 10881 10884 10885 10886 10887 10888 10890 10892 10894 10895 10897 10896 10895 10895 10894 10894 10894 10894 10894 10893 10893 10894 10894 10893 10892 10891 10890 10889 10887 10885 10883 10882 10881 10879 10876 10872 10869 10865 10861 10859 10858 10856 10854 10853 10851 10848 10846 10843
10823 10826 10831 10836 10838 10840 10843 10847 10849 10851 10856 10860 10861 10864 10868 10871 10875 10877 10880 10881 10882 10883 10885 10888 10890 10890 10889 10888 10887 10887 10887 10887 10887 10887 10885 10884 10885 10884 10883 10883 10883 10882 10881 10880 10878 10877 10876 10876 10873 10870 10867 10863 10859 10856 10854 10851 10849 10848 10846 10843 10840 10838 10836
10812 10815 10818 10823 10827 10829 10833 10837 10839 10839 10843 10848 10851 10856 10859 10861 10864 10867 10870 10874 10876 10876 10878 10881 10883 10882 10882 10880 10879 10879 10879 10879 10879 10878 10876 10875 10875 10874 10874 10874 10874 10874 10874 10873 10871 10870 10870 10869 10867 10865 10862 10858 10854 10851 10849 10846 10844 10842 10839 10836 10833 10831 10829
10801 10805 10808 10814 10818 10821 10825 10828 10829 10830 10834 10839 10843 10847 10850 10851 10852 10856 10860 10864 10867 10869 10872 10874 10874 10874 10874 10874 10871 10869 10869 10869 10868 10868 10867 10866 10865 10864 10864 10864 10865 10865 10866 10866 10864 10863 10863 10862 10861 10859 10856 10852 10848 10845 10843 10842 10839 10836 10833 10829 10825 10823 10821
10791 10796 10801 10805 10809 10812 10815 10819 10821 10823 10827 10832 10835 10836 10837 10838 10840 10846 10852 10855 10857 10861 10865 10867 10867 10866 10866 10864 10861 10858 10857 10857 10857 10858 10858 10858 10856 10855 10856 10856 10855 10856 10858 10858 10857 10856 10856 10855 10854 10852 10850 10846 10841 10837 10837 10836 10833 10829 10826 10823 10819 10815 10814
10782 10786 10790 10794 10798 10802 10806 10810 10814 10816 10818 10822 10824 10823 10824 10826 10830 10837 10843 10846 10849 10854 10858 10860 10859 10857 10855 10852 10850 10848 10847 10847 10849 10850 10849 10849 10850 10850 10849 10847 10846 10847 10850 10850 10849 10848 10848 10846 10845 10844 10843 10838 10834 10831 10830 10828 10825 10822 10819 10816 10813 10809 10807
10778 10779 10780 10783 10786 10790 10795 10800 10806 10808 10808 10809 10811 10812 10815 10818 10822 10828 10835 10839 10842 10847 10851 10851 10849 10846 10844 10842 10841 10842 10842 10841 10841 10842 10841 10841 10842 10843 10841 10839 10838 10840 10841 10842 10841 10841 10840 10838 10837 10837 10835 10830 10826 10824 10823 10820 10818 10816 10813 10809 10806 10803 10800
10775 10776 10775 10776 10776 10778 10781 10786 10792 10797 10798 10800 10803 10806 10810 10813 10817 10820 10825 10830 10836 10841 10842 10840 10836 10835 10836 10836 10836 10836 10837 10836 10835 10833 10833 10832 10832 10831 10831 10831 10831 10832 10833 10834 10833 10833 10832 10831 10830 10829 10826 10822 10819 10817 10815 10813 10810 10809 10807 10803 10800 10797 10794
10769 10771 10771 10771 10770 10771 10772 10774 10778 10785 10789 10792 10796 10799 10803 10806 10809 10811 10814 10821 10829 10833 10831 10828 10828 10829 10830 10830 10830 10830 10830 10830 10828 10824 10822 10822 10821 10819 10819 10820 10822 10824 10825 10825 10825 10824 10824 10823 10822 10821 10818 10815 10812 10811 10809 10806 10803 10801 10799 10796 10792 10790 10787
10762 10764 10765 10765 10765 10765 10765 10766 10769 10775 10780 10784 10786 10789 10792 10795 10798 10801 10805 10813 10819 10818 10816 10817 10819 10820 10819 10818 10820 10822 10823 10822 10819 10815 10811 10810 10810 10810 10809 10810 10812 10815 10816 10816 10816 10817 10816 10815 10813 10812 10809 10807 10805 10804 10802 10799 10796 10794 10791 10787 10784 10783 10781
10756 10757 10758 10759 10759 10759 10760 10761 10764 10767 10771 10774 10777 10780 10782 10785 10788 10791 10795 10801 10802 10799 10800 10804 10806 10805 10806 10808 10810 10813 10815 10816 10813 10808 10804 10801 10801 10800 10799 10800 10803 10806 10807 10808 10809 10809 10808 10806 10804 10802 10800 10799 10797 10796 10794 10792 10789 10786 10783 10780 10777 10775 10773
10748 10750 10751 10751 10752 10754 10755 10757 10759 10760 10762 10765 10768 10771 10773 10775 10778 10781 10784 10786 10786 10786 10787 10791 10794 10796 10800 10804 10805 10806 10810 10812 10808 10802 10797 10794 10792 10790 10790 10792 10795 10797 10798 10800 10801 10801 10799 10797 10794 10793 10792 10791 10790 10788 10787 10785 10782 10779 10776 10773 10770 10768 10766
10741 10743 10743 10744 10746 10748 10749 10752 10754 10754 10754 10757 10760 10762 10763 10764 10767 10771 10773 10775 10778 10779 10778 10779 10783 10789 10796 10800 10799 10798 10802 10805 10803 10799 10794 10789 10784 10783 10783 10785 10787 10790 10791 10793 10793 10793 10791 10788 10786 10785 10784 10783 10782 10781 10779 10777 10774 10771 10769 10767 10764 10761 10758
10734 10735 10736 10738 10740 10741 10744 10746 10747 10748 10749 10751 10752 10753 10754 10755 10757 10761 10764 10768 10771 10773 10772 10772 10774 10780 10788 10795 10795 10793 10794 10794 10796 10797 10791 10779 10773 10773 10775 10777 10781 10784 10785 10785 10785 10784 10783 10781 10780 10779 10777 10776 10775 10773 10770 10768 10766 10764 10762 10761 10758 10755 10753
10726 10728 10730 10732 10734 10736 10738 10740 10741 10742 10743 10744 10744 10745 10746 10748 10751 10754 10758 10761 10763 10766 10768 10770 10768 10768 10777 10788 10797 10801 10798 10793 10795 10798 10790 10776 10769 10768 10769 10773 10777 10778 10777 10777 10777 10776 10775 10774 10774 10772 10770 10769 10767 10765 10763 10761 10759 10757 10756 10755 10752 10750 10747
10718 10720 10723 10725 10728 10730 10732 10733 10734 10736 10737 10737 10737 10738 10741 10743 10746 10749 10752 10755 10758 10761 10766 10768 10766 10764 10767 10779 10795 10807 10808 10803 10804 10805 10798 10786 10778 10774 10771 10771 10771 10770 10769 10770 10770 10769 10768 10767 10766 10763 10762 10761 10760 10758 10757 10755 10753 10751 10750 10748 10746 10743 10741
10710 10713 10715 10718 10720 10722 10724 10726 10728 10730 10731 10731 10732 10734 10736 10739 10742 10746 10751 10755 10758 10761 10765 10769 10770 10767 10767 10772 10784 10798 10806 10808 10809 10806 10798 10788 10780 10774 10770 10766 10763 10763 10764 10764 10763 10762 10761 10759 10757 10755 10755 10754 10753 10752 10751 10750 10747 10745 10743 10741 10739 10736 10733